This is the latest recevied weather packets stored in our database for station/object SHLBYV-WX. If no packets are shown the sender has not sent any weather packets the latest 10 day(s).
| Time | Temp. | Humidity | Pressure | Rain* | Wind** | Luminosity | Snow |
|---|---|---|---|---|---|---|---|
| 1777945551 | 17.22° C | 70% | 970.4 hPa | 0 mm | - | - | - |
| 1777944669 | 17.22° C | 70% | 970.4 hPa | 0 mm | - | - | - |
| 1777943752 | 17.22° C | 70% | 970.4 hPa | 0 mm | - | - | - |
| 1777942882 | 17.78° C | 70% | 970.4 hPa | 0 mm | - | - | - |
| 1777941951 | 17.22° C | 44% | 970.5 hPa | 0 mm | - | - | - |
| 1777941068 | 18.89° C | 47% | 971.1 hPa | 0 mm | - | - | - |
| 1777940150 | 18.89° C | 47% | 971.1 hPa | 0 mm | - | - | - |
| 1777939292 | 19.44° C | 47% | 971.1 hPa | 0 mm | - | - | - |
| 1777938352 | 20° C | 40% | 971.2 hPa | 0 mm | - | - | - |
| 1777937470 | 20.56° C | 37% | 971.1 hPa | 0 mm | - | - | - |
| 1777936551 | 20.56° C | 37% | 971 hPa | 0 mm | - | - | - |
| 1777935678 | 21.11° C | 37% | 971 hPa | 0 mm | - | - | - |
| 1777934751 | 21.11° C | 37% | 971 hPa | 0 mm | - | - | - |
| 1777933872 | 21.67° C | 39% | 971.1 hPa | 0 mm | - | - | - |
| 1777932951 | 21.67° C | 39% | 971.1 hPa | 0 mm | - | - | - |
| 1777932088 | 22.22° C | 39% | 971.1 hPa | 0 mm | - | - | - |
| 1777931150 | 22.22° C | 38% | 972.2 hPa | 0 mm | - | - | - |
| 1777930272 | 22.22° C | 38% | 972.2 hPa | 0 mm | - | - | - |
| 1777929350 | 22.22° C | 37% | 971.1 hPa | 0 mm | - | - | - |
| 1777928484 | 22.22° C | 37% | 971.2 hPa | 0 mm | - | - | - |
| 1777927556 | 22.22° C | 39% | 971.8 hPa | 0 mm | - | - | - |
| 1777926666 | 22.22° C | 39% | 971.8 hPa | 0 mm | - | - | - |
| 1777925757 | 22.22° C | 39% | 971.8 hPa | 0 mm | - | - | - |
| 1777924882 | 22.22° C | 35% | 971.2 hPa | 0 mm | - | - | - |
| 1777923957 | 22.22° C | 34% | 972.2 hPa | 0 mm | - | - | - |
* Rain latest hour (hover to see other rain measurements)
** Current wind speed in m/s (hover to see current wind gust speed)